RADUGA 8 [-]

Last updated on Tue Jun 27 2023 00:03:02 GMT+0000 (Coordinated Universal Time)

1 12351U 81027A 23176.62956543 .00000135 00000+0 00000+0 0 9996 2 12351 8.9024 300.6117 0081738 237.7871 157.2785 1.00371108111613
UTC large
Height (km)
Speed (km/s)
/
Latitude / Longitude
Inclination (degrees)
Orbital Period (minutes)
Azimuth
Elevation
Range (km)
Doppler Factor

Next 0 passes for location: London (51.5072 / 0.1276)

Sorry there are no passes over London.